IU7URP-13 Weather Reports


time (UTC)temp
F
wind
direction
speed
knots
gust
knots
rain 1hr
in
rain 24hr
in
rain mn
in
humidity
%
barometer
mb
20260506235825 61 0.0 0.0 0.00 0.00 0.00 99 1019.3
20260506233824 60 0.0 0.0 0.00 0.00 0.00 99 1018.9
20260506231822 60 0.0 0.0 0.00 0.00 0.00 99 1019.1
20260506225821 60 0.0 0.0 0.00 0.00 0.00 99 1019.2
20260506223820 60 0.0 0.0 0.00 0.00 0.00 99 1019.1
20260506221818 60 0.0 0.0 0.00 0.00 0.00 99 1019.0
20260506215817 60 0.0 0.0 0.00 0.00 0.00 99 1019.0
20260506213816 60 0.0 0.0 0.00 0.00 0.00 99 1019.0
20260506211814 60 0.0 0.0 0.00 0.00 0.00 99 1018.9
20260506205813 60 0.0 0.0 0.00 0.00 0.00 99 1019.1
20260506203812 60 0.0 0.0 0.00 0.00 0.00 99 1019.2
20260506201810 60 0.0 0.0 0.00 0.00 0.00 99 1019.2
20260506195809 60 0.0 0.0 0.00 0.00 0.00 99 1019.0
20260506193807 61 0.0 0.0 0.00 0.00 0.00 99 1019.1
20260506191806 61 0.0 0.0 0.00 0.00 0.00 99 1019.4
20260506185805 61 0.0 0.0 0.00 0.00 0.00 99 1019.0
20260506183804 61 0.0 0.0 0.00 0.00 0.00 99 1019.0
20260506181802 62 0.0 0.0 0.00 0.00 0.00 99 1018.6
20260506175801 62 0.0 0.0 0.00 0.00 0.00 99 1018.7
20260506173759 63 0.0 0.0 0.00 0.00 0.00 99 1018.8
20260506171758 64 0.0 0.0 0.00 0.00 0.00 99 1018.6
20260506165757 64 0.0 0.0 0.00 0.00 0.00 99 1018.6
20260506163756 65 0.0 0.0 0.00 0.00 0.00 99 1018.4
20260506161754 65 0.0 0.0 0.00 0.00 0.00 99 1018.4
20260506155753 65 0.0 0.0 0.00 0.00 0.00 99 1018.6
20260506153752 65 0.0 0.0 0.00 0.00 0.00 99 1018.3
20260506153557 65 0.0 0.0 0.00 0.00 0.00 99 1018.5
20260506151556 66 0.0 0.0 0.00 0.00 0.00 99 1018.5
20260506145554 66 0.0 0.0 0.00 0.00 0.00 99 1018.5
20260506145500 66 0.0 0.0 0.00 0.00 0.00 99 1018.5
20260506143456 66 0.0 0.0 0.00 0.00 0.00 99 1018.7
20260506141455 67 0.0 0.0 0.00 0.00 0.00 99 1018.6
20260506135453 69 0.0 0.0 0.00 0.00 0.00 99 1018.5
20260506133451 67 0.0 0.0 0.00 0.00 0.00 99 1018.5
20260506132742 67 0.0 0.0 0.00 0.00 0.00 99 1018.6
20260506131436 69 0.0 0.0 0.00 0.00 0.00 99 1018.6
20260506125434 71 0.0 0.0 0.00 0.00 0.00 99 1018.8
20260506123420 70 0.0 0.0 0.00 0.00 0.00 99 1018.9
20260506121417 72 0.0 0.0 0.00 0.00 0.00 99 1018.8
20260506121234 71 0.0 0.0 0.00 0.00 0.00 99 1018.5
20260506115231 70 0.0 0.0 0.00 0.00 0.00 99 1019.1
20260506113230 72 0.0 0.0 0.00 0.00 0.00 99 1019.2
20260506111228 70 0.0 0.0 0.00 0.00 0.00 99 1019.5
20260506105226 70 0.0 0.0 0.00 0.00 0.00 99 1019.5
20260506103224 71 0.0 0.0 0.00 0.00 0.00 99 1019.4
20260506101221 71 0.0 0.0 0.00 0.00 0.00 99 1019.5
20260506095220 71 0.0 0.0 0.00 0.00 0.00 99 1019.7
20260506094628 70 0.0 0.0 0.00 0.00 0.00 99 1019.8
20260506093940 70 0.0 0.0 0.00 0.00 0.00 99 1019.7
20260506091938 71 0.0 0.0 0.00 0.00 0.00 99 1019.5
20260506090611 70 0.0 0.0 0.00 0.00 0.00 99 1019.5
20260506085220 69 0.0 0.0 0.00 0.00 0.00 99 1019.5
20260506083143 70 0.0 0.0 0.00 0.00 0.00 99 1019.5
20260506081846 69 0.0 0.0 0.00 0.00 0.00 99 1019.4
20260506071810 67 0.0 0.0 0.00 0.00 0.00 99 1019.7
20260506061042 64 0.0 0.0 0.00 0.00 0.00 99 1019.5
20260506051038 61 0.0 0.0 0.00 0.00 0.00 99 1019.3
20260506043723 61 0.0 0.0 0.00 0.00 0.00 99 1019.2
20260506041716 60 0.0 0.0 0.00 0.00 0.00 99 1019.0
20260506040255 60 0.0 0.0 0.00 0.00 0.00 99 1019.0
20260506034254 60 0.0 0.0 0.00 0.00 0.00 99 1018.9
20260506033603 61 0.0 0.0 0.00 0.00 0.00 99 1019.0
20260506031602 60 0.0 0.0 0.00 0.00 0.00 99 1019.0
20260506031431 60 0.0 0.0 0.00 0.00 0.00 99 1019.0
20260506025429 60 0.0 0.0 0.00 0.00 0.00 99 1018.9
20260506023428 60 0.0 0.0 0.00 0.00 0.00 99 1018.8
20260506021427 60 0.0 0.0 0.00 0.00 0.00 99 1019.0
20260506015425 60 0.0 0.0 0.00 0.00 0.00 99 1019.1
20260506013424 60 0.0 0.0 0.00 0.00 0.00 99 1019.3
20260506011423 60 0.0 0.0 0.00 0.00 0.00 99 1019.5
20260506005421 60 0.0 0.0 0.00 0.00 0.00 99 1019.3
20260506003420 60 0.0 0.0 0.00 0.00 0.00 99 1019.2